Time,TemperatureF,DewpointF,PressureIn,WindDirection,WindDirectionDegrees,WindSpeedMPH,WindSpeedGustMPH,Humidity,HourlyPrecipIn,Conditions,Clouds,dailyrainin,SoftwareType,DateUTC
2013-10-21 00:01:00,41.6,40.5,30.11,SSW,206,0.0,0.0,96,0.00,,---,0.00,VWS V14.01,2013-10-21 04:01:00,
2013-10-21 00:02:00,41.6,40.5,30.11,SSW,206,0.0,0.0,96,0.00,,---,0.00,VWS V14.01,2013-10-21 04:02:00,
2013-10-21 00:07:00,41.5,40.5,30.11,SSW,206,0.0,0.0,96,0.00,,---,0.00,VWS V14.01,2013-10-21 04:07:00,
2013-10-21 00:12:00,41.4,40.3,30.11,SSW,207,0.0,0.0,96,0.00,,---,0.00,VWS V14.01,2013-10-21 04:12:00,
2013-10-21 00:17:00,41.3,40.2,30.11,SSW,206,0.0,0.0,96,0.00,,---,0.00,VWS V14.01,2013-10-21 04:17:00,
2013-10-21 00:22:00,41.3,40.2,30.11,SSW,206,0.0,0.0,96,0.00,,---,0.00,VWS V14.01,2013-10-21 04:22:00,
2013-10-21 00:27:00,41.3,40.2,30.11,SSW,206,0.0,0.0,96,0.00,,---,0.00,VWS V14.01,2013-10-21 04:27:00,
2013-10-21 00:32:00,41.2,40.2,30.11,SSW,206,0.0,0.0,96,0.00,,---,0.00,VWS V14.01,2013-10-21 04:32:00,
2013-10-21 00:37:00,41.1,40.0,30.11,SSW,206,0.0,0.0,96,0.00,,---,0.00,VWS V14.01,2013-10-21 04:37:00,
2013-10-21 00:42:00,41.1,40.0,30.11,SSW,206,0.0,0.0,96,0.00,,---,0.00,VWS V14.01,2013-10-21 04:42:00,
2013-10-21 00:47:00,41.1,40.0,30.11,SSW,206,0.0,0.0,96,0.00,,---,0.00,VWS V14.01,2013-10-21 04:47:00,
2013-10-21 00:52:00,41.0,40.0,30.11,SSW,206,0.0,0.0,96,0.00,,---,0.00,VWS V14.01,2013-10-21 04:52:00,
2013-10-21 00:57:00,41.0,40.0,30.11,SSW,206,0.0,0.0,96,0.00,,---,0.00,VWS V14.01,2013-10-21 04:57:00,
2013-10-21 01:02:00,40.9,39.8,30.11,SSW,206,0.0,0.0,96,0.00,,---,0.00,VWS V14.01,2013-10-21 05:02:00,
2013-10-21 01:07:00,40.9,39.8,30.11,SSW,206,0.0,0.0,96,0.00,,---,0.00,VWS V14.01,2013-10-21 05:07:00,
2013-10-21 01:12:00,40.7,39.7,30.11,SSW,206,0.0,0.0,96,0.00,,---,0.00,VWS V14.01,2013-10-21 05:12:00,
2013-10-21 01:17:00,40.6,39.5,30.11,SSW,206,0.0,0.0,96,0.00,,---,0.00,VWS V14.01,2013-10-21 05:17:00,
2013-10-21 01:22:00,40.6,39.5,30.10,SSW,206,0.0,0.0,96,0.00,,---,0.00,VWS V14.01,2013-10-21 05:22:00,
2013-10-21 01:27:00,40.6,39.5,30.10,SSW,206,0.0,0.0,96,0.00,,---,0.00,VWS V14.01,2013-10-21 05:27:00,
2013-10-21 01:32:00,40.6,39.8,30.10,SSW,206,0.0,0.0,97,0.00,,---,0.00,VWS V14.01,2013-10-21 05:32:00,
2013-10-21 01:37:00,40.6,39.8,30.10,SSW,206,0.0,0.0,97,0.00,,---,0.00,VWS V14.01,2013-10-21 05:37:00,
2013-10-21 01:42:00,40.6,39.8,30.10,SSW,207,0.0,0.0,97,0.00,,---,0.00,VWS V14.01,2013-10-21 05:42:00,
2013-10-21 01:47:00,40.5,39.7,30.11,SSW,206,0.0,0.0,97,0.00,,---,0.00,VWS V14.01,2013-10-21 05:47:00,
2013-10-21 01:52:00,40.4,39.6,30.11,SSW,206,0.0,0.0,97,0.00,,---,0.00,VWS V14.01,2013-10-21 05:52:00,
2013-10-21 01:57:00,40.4,39.6,30.11,SSW,206,0.0,0.0,97,0.00,,---,0.00,VWS V14.01,2013-10-21 05:57:00,
2013-10-21 02:02:00,40.4,39.6,30.10,SSW,206,0.0,0.0,97,0.00,,---,0.00,VWS V14.01,2013-10-21 06:02:00,
2013-10-21 02:07:00,40.3,39.5,30.11,SSW,206,0.0,0.0,97,0.00,,---,0.00,VWS V14.01,2013-10-21 06:07:00,
2013-10-21 02:12:00,40.3,39.5,30.11,SSW,206,0.0,0.0,97,0.00,,---,0.00,VWS V14.01,2013-10-21 06:12:00,
2013-10-21 02:17:00,40.2,39.4,30.11,SSW,206,0.0,0.0,97,0.00,,---,0.00,VWS V14.01,2013-10-21 06:17:00,
2013-10-21 02:22:00,40.1,39.3,30.11,SSW,207,0.0,0.0,97,0.00,,---,0.00,VWS V14.01,2013-10-21 06:22:00,
2013-10-21 02:27:00,40.0,39.2,30.11,SSW,206,0.0,0.0,97,0.00,,---,0.00,VWS V14.01,2013-10-21 06:27:00,
2013-10-21 02:32:00,40.0,39.2,30.11,SSW,207,0.0,0.0,97,0.00,,---,0.00,VWS V14.01,2013-10-21 06:32:00,
2013-10-21 02:37:00,39.9,39.1,30.11,SSW,206,0.0,0.0,97,0.00,,---,0.00,VWS V14.01,2013-10-21 06:37:00,
2013-10-21 02:42:00,39.8,39.0,30.11,SSW,206,0.0,0.0,97,0.00,,---,0.00,VWS V14.01,2013-10-21 06:42:00,
2013-10-21 02:47:00,39.7,38.9,30.11,SSW,207,0.0,0.0,97,0.00,,---,0.00,VWS V14.01,2013-10-21 06:47:00,
2013-10-21 02:52:00,39.7,38.9,30.11,SSW,206,0.0,0.0,97,0.00,,---,0.00,VWS V14.01,2013-10-21 06:52:00,
2013-10-21 02:57:00,39.6,38.8,30.10,SSW,207,0.0,0.0,97,0.00,,---,0.00,VWS V14.01,2013-10-21 06:57:00,
2013-10-21 03:02:00,39.6,38.8,30.10,SSW,206,0.0,0.0,97,0.00,,---,0.00,VWS V14.01,2013-10-21 07:02:00,
2013-10-21 03:07:00,39.6,38.8,30.10,SSW,207,0.0,0.0,97,0.00,,---,0.00,VWS V14.01,2013-10-21 07:07:00,
2013-10-21 03:12:00,39.6,38.8,30.10,SSW,206,0.0,0.0,97,0.00,,---,0.00,VWS V14.01,2013-10-21 07:12:00,
2013-10-21 03:17:00,39.5,38.7,30.10,SSW,206,0.0,0.0,97,0.00,,---,0.00,VWS V14.01,2013-10-21 07:17:00,
2013-10-21 03:22:00,39.4,38.6,30.10,SSW,206,0.0,0.0,97,0.00,,---,0.00,VWS V14.01,2013-10-21 07:22:00,
2013-10-21 03:27:00,39.3,38.5,30.10,SSW,207,0.0,0.0,97,0.00,,---,0.00,VWS V14.01,2013-10-21 07:27:00,
2013-10-21 03:32:00,39.2,38.4,30.10,SSW,206,0.0,0.0,97,0.00,,---,0.00,VWS V14.01,2013-10-21 07:32:00,
2013-10-21 03:37:00,39.1,38.3,30.10,SSW,206,0.0,0.0,97,0.00,,---,0.00,VWS V14.01,2013-10-21 07:37:00,
2013-10-21 03:42:00,39.1,38.3,30.10,SSW,206,0.0,0.0,97,0.00,,---,0.00,VWS V14.01,2013-10-21 07:42:00,
2013-10-21 03:47:00,39.1,38.3,30.10,SSW,206,0.0,0.0,97,0.00,,---,0.00,VWS V14.01,2013-10-21 07:47:00,
2013-10-21 03:52:00,39.0,38.2,30.10,SSW,207,0.0,0.0,97,0.00,,---,0.00,VWS V14.01,2013-10-21 07:52:00,
2013-10-21 03:57:00,38.9,38.1,30.10,SSW,206,0.0,0.0,97,0.00,,---,0.00,VWS V14.01,2013-10-21 07:57:00,
2013-10-21 04:02:00,38.8,38.0,30.10,SSW,206,0.0,0.0,97,0.00,,---,0.00,VWS V14.01,2013-10-21 08:02:00,
2013-10-21 04:07:00,38.8,38.0,30.10,SSW,206,0.0,0.0,97,0.00,,---,0.00,VWS V14.01,2013-10-21 08:07:00,
2013-10-21 04:12:00,38.8,38.0,30.10,SSW,206,0.0,0.0,97,0.00,,---,0.00,VWS V14.01,2013-10-21 08:12:00,
2013-10-21 04:17:00,38.8,38.0,30.10,SSW,206,0.0,0.0,97,0.00,,---,0.00,VWS V14.01,2013-10-21 08:17:00,
2013-10-21 04:22:00,38.8,38.0,30.10,SSW,206,0.0,0.0,97,0.00,,---,0.00,VWS V14.01,2013-10-21 08:22:00,
2013-10-21 04:27:00,38.9,38.1,30.10,SSW,206,0.0,0.0,97,0.00,,---,0.00,VWS V14.01,2013-10-21 08:27:00,
2013-10-21 04:32:00,38.9,38.1,30.10,SSW,207,0.0,0.0,97,0.00,,---,0.00,VWS V14.01,2013-10-21 08:32:00,
2013-10-21 04:37:00,38.9,38.1,30.10,SSW,206,0.0,0.0,97,0.00,,---,0.00,VWS V14.01,2013-10-21 08:37:00,
2013-10-21 04:42:00,38.8,38.0,30.10,SSW,206,0.0,0.0,97,0.00,,---,0.00,VWS V14.01,2013-10-21 08:42:00,
2013-10-21 04:47:00,38.8,38.0,30.10,SSW,206,0.0,0.0,97,0.00,,---,0.00,VWS V14.01,2013-10-21 08:47:00,
2013-10-21 04:52:00,38.8,38.0,30.10,SSW,206,0.0,0.0,97,0.00,,---,0.00,VWS V14.01,2013-10-21 08:52:00,
2013-10-21 04:57:00,38.8,38.0,30.10,SSW,207,0.0,0.0,97,0.00,,---,0.00,VWS V14.01,2013-10-21 08:57:00,
2013-10-21 05:02:00,38.9,38.1,30.11,SSW,206,0.0,0.0,97,0.00,,---,0.00,VWS V14.01,2013-10-21 09:02:00,
2013-10-21 05:07:00,38.9,38.1,30.11,SSW,206,0.0,0.0,97,0.00,,---,0.00,VWS V14.01,2013-10-21 09:07:00,
2013-10-21 05:12:00,38.9,38.1,30.10,SSW,207,0.0,0.0,97,0.00,,---,0.00,VWS V14.01,2013-10-21 09:12:00,
2013-10-21 05:17:00,38.9,38.1,30.10,SSW,206,0.0,0.0,97,0.00,,---,0.00,VWS V14.01,2013-10-21 09:17:00,
2013-10-21 05:22:00,38.9,38.1,30.11,SSW,206,0.0,0.0,97,0.00,,---,0.00,VWS V14.01,2013-10-21 09:22:00,
2013-10-21 05:27:00,38.8,38.0,30.11,SSW,206,0.0,0.0,97,0.00,,---,0.00,VWS V14.01,2013-10-21 09:27:00,
2013-10-21 05:32:00,38.6,37.8,30.11,SSW,206,0.0,0.0,97,0.00,,---,0.00,VWS V14.01,2013-10-21 09:32:00,
2013-10-21 05:37:00,38.6,37.8,30.11,SSW,206,0.0,0.0,97,0.00,,---,0.00,VWS V14.01,2013-10-21 09:37:00,
2013-10-21 05:42:00,38.6,37.8,30.11,SSW,206,0.0,0.0,97,0.00,,---,0.00,VWS V14.01,2013-10-21 09:42:00,
2013-10-21 05:47:00,38.7,37.9,30.11,SSW,206,0.0,0.0,97,0.00,,---,0.00,VWS V14.01,2013-10-21 09:47:00,
2013-10-21 05:52:00,38.7,37.9,30.12,SSW,201,0.0,0.0,97,0.00,,---,0.00,VWS V14.01,2013-10-21 09:52:00,
2013-10-21 05:57:00,38.6,37.8,30.12,SSW,200,0.0,0.0,97,0.00,,---,0.00,VWS V14.01,2013-10-21 09:57:00,
2013-10-21 06:02:00,38.7,37.9,30.12,SSW,200,0.0,0.0,97,0.00,,---,0.00,VWS V14.01,2013-10-21 10:02:00,
2013-10-21 06:07:00,38.5,37.7,30.12,SSW,200,0.0,0.0,97,0.00,,---,0.00,VWS V14.01,2013-10-21 10:07:00,
2013-10-21 06:12:00,38.5,37.7,30.12,SSW,200,0.0,0.0,97,0.00,,---,0.00,VWS V14.01,2013-10-21 10:12:00,
2013-10-21 06:17:00,38.6,37.8,30.12,SSW,200,0.0,0.0,97,0.00,,---,0.00,VWS V14.01,2013-10-21 10:17:00,
2013-10-21 06:22:00,38.5,37.7,30.12,SSW,200,0.0,0.0,97,0.00,,---,0.00,VWS V14.01,2013-10-21 10:22:00,
2013-10-21 06:27:00,38.4,37.6,30.12,SSW,200,0.0,0.0,97,0.00,,---,0.00,VWS V14.01,2013-10-21 10:27:00,
2013-10-21 06:32:00,38.4,37.6,30.12,SSW,200,0.0,0.0,97,0.00,,---,0.00,VWS V14.01,2013-10-21 10:32:00,
2013-10-21 06:37:00,38.3,37.5,30.12,SSW,200,0.0,0.0,97,0.00,,---,0.00,VWS V14.01,2013-10-21 10:37:00,
2013-10-21 06:42:00,38.2,37.4,30.12,SSW,200,0.0,0.0,97,0.00,,---,0.00,VWS V14.01,2013-10-21 10:42:00,
2013-10-21 06:47:00,38.2,37.4,30.13,SSW,200,0.0,0.0,97,0.00,,---,0.00,VWS V14.01,2013-10-21 10:47:00,
2013-10-21 06:52:00,38.2,37.4,30.13,SSW,200,0.0,0.0,97,0.00,,---,0.00,VWS V14.01,2013-10-21 10:52:00,
2013-10-21 06:57:00,38.1,37.3,30.13,SSW,200,0.0,0.0,97,0.00,,---,0.00,VWS V14.01,2013-10-21 10:57:00,
2013-10-21 07:02:00,38.0,37.2,30.13,SSW,200,0.0,0.0,97,0.00,,---,0.00,VWS V14.01,2013-10-21 11:02:00,
2013-10-21 07:07:00,37.9,37.1,30.13,SSW,200,0.0,0.0,97,0.00,,---,0.00,VWS V14.01,2013-10-21 11:07:00,
2013-10-21 07:12:00,37.9,37.1,30.13,SSW,200,0.0,0.0,97,0.00,,---,0.00,VWS V14.01,2013-10-21 11:12:00,
2013-10-21 07:17:00,37.8,37.0,30.14,SSW,200,0.0,0.0,97,0.00,,---,0.00,VWS V14.01,2013-10-21 11:17:00,
2013-10-21 07:22:00,37.8,37.0,30.14,SSW,200,0.0,0.0,97,0.00,,---,0.00,VWS V14.01,2013-10-21 11:22:00,
2013-10-21 07:27:00,37.7,36.9,30.14,SSW,200,0.0,0.0,97,0.00,,---,0.00,VWS V14.01,2013-10-21 11:27:00,
2013-10-21 07:32:00,37.7,36.9,30.14,SSW,201,0.0,0.0,97,0.00,,---,0.00,VWS V14.01,2013-10-21 11:32:00,
2013-10-21 07:37:00,37.6,36.8,30.14,SSW,200,0.0,0.0,97,0.00,,---,0.00,VWS V14.01,2013-10-21 11:37:00,
2013-10-21 07:42:00,37.5,36.7,30.14,SSW,200,0.0,0.0,97,0.00,,---,0.00,VWS V14.01,2013-10-21 11:42:00,
2013-10-21 07:47:00,37.4,36.6,30.14,SSW,200,0.0,0.0,97,0.00,,---,0.00,VWS V14.01,2013-10-21 11:47:00,
2013-10-21 07:52:00,37.3,36.5,30.14,SSW,201,0.0,0.0,97,0.00,,---,0.00,VWS V14.01,2013-10-21 11:52:00,
2013-10-21 07:57:00,37.3,36.5,30.14,SSW,200,0.0,0.0,97,0.00,,---,0.00,VWS V14.01,2013-10-21 11:57:00,
2013-10-21 08:02:00,37.4,36.6,30.14,SSW,201,0.0,0.0,97,0.00,,---,0.00,VWS V14.01,2013-10-21 12:02:00,
2013-10-21 08:07:00,37.6,36.8,30.14,SSW,200,0.0,0.0,97,0.00,,---,0.00,VWS V14.01,2013-10-21 12:07:00,
2013-10-21 08:12:00,37.8,37.0,30.14,SSW,200,0.0,0.0,97,0.00,,---,0.00,VWS V14.01,2013-10-21 12:12:00,
2013-10-21 08:17:00,37.9,37.1,30.15,SSW,201,0.0,0.0,97,0.00,,---,0.00,VWS V14.01,2013-10-21 12:17:00,
2013-10-21 08:22:00,38.0,37.2,30.15,SSW,200,0.0,0.0,97,0.00,,---,0.00,VWS V14.01,2013-10-21 12:22:00,
2013-10-21 08:27:00,38.1,37.3,30.15,SSW,200,0.0,0.0,97,0.00,,---,0.00,VWS V14.01,2013-10-21 12:27:00,
2013-10-21 08:32:00,38.4,37.6,30.15,SSW,200,0.0,0.0,97,0.00,,---,0.00,VWS V14.01,2013-10-21 12:32:00,
2013-10-21 08:37:00,38.7,37.9,30.15,SSW,200,0.0,0.0,97,0.00,,---,0.00,VWS V14.01,2013-10-21 12:37:00,
2013-10-21 08:42:00,39.2,38.4,30.15,SSW,200,0.0,0.0,97,0.00,,---,0.00,VWS V14.01,2013-10-21 12:42:00,
2013-10-21 08:47:00,39.7,38.9,30.15,SSW,200,0.0,0.0,97,0.00,,---,0.00,VWS V14.01,2013-10-21 12:47:00,
2013-10-21 08:52:00,40.0,39.2,30.15,SSW,201,0.0,0.0,97,0.00,,---,0.00,VWS V14.01,2013-10-21 12:52:00,
2013-10-21 08:57:00,40.4,39.6,30.15,SSW,200,0.0,0.0,97,0.00,,---,0.00,VWS V14.01,2013-10-21 12:57:00,
2013-10-21 09:02:00,40.9,40.1,30.15,SSW,200,0.0,0.0,97,0.00,,---,0.00,VWS V14.01,2013-10-21 13:02:00,
2013-10-21 09:07:00,41.5,40.7,30.15,SSW,201,0.0,0.0,97,0.00,,---,0.00,VWS V14.01,2013-10-21 13:07:00,
2013-10-21 09:12:00,42.1,41.3,30.15,SSW,200,0.0,0.0,97,0.00,,---,0.00,VWS V14.01,2013-10-21 13:12:00,
2013-10-21 09:17:00,42.6,41.8,30.15,SSW,200,0.0,0.0,97,0.00,,---,0.00,VWS V14.01,2013-10-21 13:17:00,
2013-10-21 09:22:00,43.2,42.4,30.15,SSW,201,0.0,0.0,97,0.00,,---,0.00,VWS V14.01,2013-10-21 13:22:00,
2013-10-21 09:27:00,43.8,43.0,30.15,SSW,200,0.0,0.0,97,0.00,,---,0.00,VWS V14.01,2013-10-21 13:27:00,
2013-10-21 09:32:00,44.5,43.7,30.16,SSW,200,0.0,0.0,97,0.00,,---,0.00,VWS V14.01,2013-10-21 13:32:00,
2013-10-21 09:37:00,45.0,44.2,30.16,SSW,200,0.0,0.0,97,0.00,,---,0.00,VWS V14.01,2013-10-21 13:37:00,
2013-10-21 09:42:00,45.6,44.8,30.15,SSW,201,0.0,0.0,97,0.00,,---,0.00,VWS V14.01,2013-10-21 13:42:00,
2013-10-21 09:47:00,46.1,45.3,30.16,SSW,200,0.0,0.0,97,0.00,,---,0.00,VWS V14.01,2013-10-21 13:47:00,
2013-10-21 09:52:00,46.5,45.7,30.15,SSW,200,0.0,0.0,97,0.00,,---,0.00,VWS V14.01,2013-10-21 13:52:00,
2013-10-21 09:57:00,47.0,46.2,30.15,SSW,201,0.0,0.0,97,0.00,,---,0.00,VWS V14.01,2013-10-21 13:57:00,
2013-10-21 10:02:00,47.5,46.7,30.15,SSW,200,0.0,0.0,97,0.00,,---,0.00,VWS V14.01,2013-10-21 14:02:00,
2013-10-21 10:07:00,48.1,47.3,30.15,SSW,202,0.0,0.0,97,0.00,,---,0.00,VWS V14.01,2013-10-21 14:07:00,
2013-10-21 10:12:00,48.6,47.8,30.15,South,171,0.0,0.0,97,0.00,,---,0.00,VWS V14.01,2013-10-21 14:12:00,
2013-10-21 10:17:00,49.0,48.2,30.15,South,171,0.0,0.0,97,0.00,,---,0.00,VWS V14.01,2013-10-21 14:17:00,
2013-10-21 10:22:00,49.4,48.6,30.15,South,171,0.0,0.0,97,0.00,,---,0.00,VWS V14.01,2013-10-21 14:22:00,
2013-10-21 10:27:00,49.9,49.1,30.15,SSE,168,0.0,0.0,97,0.00,,---,0.00,VWS V14.01,2013-10-21 14:27:00,
2013-10-21 10:32:00,50.4,49.6,30.15,SSE,168,0.0,0.0,97,0.00,,---,0.00,VWS V14.01,2013-10-21 14:32:00,
2013-10-21 10:37:00,51.0,50.2,30.15,SSW,202,0.0,0.0,97,0.00,,---,0.00,VWS V14.01,2013-10-21 14:37:00,
2013-10-21 10:42:00,51.7,50.9,30.15,SSW,196,0.0,0.0,97,0.00,,---,0.00,VWS V14.01,2013-10-21 14:42:00,
2013-10-21 10:47:00,52.2,51.4,30.14,ESE,121,0.0,0.0,97,0.00,,---,0.00,VWS V14.01,2013-10-21 14:47:00,
2013-10-21 10:52:00,52.7,51.6,30.14,East,83,1.0,2.0,96,0.00,,---,0.00,VWS V14.01,2013-10-21 14:52:00,
2013-10-21 10:57:00,53.6,51.6,30.14,SSE,153,0.0,1.0,93,0.00,,---,0.00,VWS V14.01,2013-10-21 14:57:00,
2013-10-21 11:02:00,54.3,52.0,30.14,WSW,257,0.0,1.0,92,0.00,,---,0.00,VWS V14.01,2013-10-21 15:02:00,
2013-10-21 11:07:00,54.8,51.6,30.14,WNW,284,0.0,1.0,89,0.00,,---,0.00,VWS V14.01,2013-10-21 15:07:00,
2013-10-21 11:12:00,55.2,51.7,30.15,WNW,284,0.0,1.0,88,0.00,,---,0.00,VWS V14.01,2013-10-21 15:12:00,
2013-10-21 11:17:00,55.6,51.8,30.15,East,88,1.0,1.0,87,0.00,,---,0.00,VWS V14.01,2013-10-21 15:17:00,
2013-10-21 11:22:00,56.1,52.0,30.14,East,90,0.0,1.0,86,0.00,,---,0.00,VWS V14.01,2013-10-21 15:22:00,
2013-10-21 11:27:00,56.6,52.5,30.14,East,90,0.0,0.0,86,0.00,,---,0.00,VWS V14.01,2013-10-21 15:27:00,
2013-10-21 11:32:00,56.9,52.1,30.14,East,88,0.0,2.0,84,0.00,,---,0.00,VWS V14.01,2013-10-21 15:32:00,
2013-10-21 11:37:00,57.1,51.7,30.14,South,182,1.0,2.0,82,0.00,,---,0.00,VWS V14.01,2013-10-21 15:37:00,
2013-10-21 11:42:00,57.5,51.4,30.14,WSW,249,0.0,2.0,80,0.00,,---,0.00,VWS V14.01,2013-10-21 15:42:00,
2013-10-21 11:47:00,57.8,52.0,30.14,WSW,249,1.0,2.0,81,0.00,,---,0.00,VWS V14.01,2013-10-21 15:47:00,
2013-10-21 11:52:00,58.0,50.5,30.13,West,276,0.0,2.0,76,0.00,,---,0.00,VWS V14.01,2013-10-21 15:52:00,
2013-10-21 11:57:00,58.4,51.2,30.13,West,273,0.0,0.0,77,0.00,,---,0.00,VWS V14.01,2013-10-21 15:57:00,
2013-10-21 12:02:00,58.7,51.2,30.13,SW,221,1.0,1.0,76,0.00,,---,0.00,VWS V14.01,2013-10-21 16:02:00,
2013-10-21 12:07:00,59.1,50.8,30.13,WSW,257,0.0,2.0,74,0.00,,---,0.00,VWS V14.01,2013-10-21 16:07:00,
2013-10-21 12:12:00,59.4,50.8,30.13,WSW,244,1.0,2.0,73,0.00,,---,0.00,VWS V14.01,2013-10-21 16:12:00,
2013-10-21 12:17:00,59.8,50.4,30.13,SW,214,1.0,2.0,71,0.00,,---,0.00,VWS V14.01,2013-10-21 16:17:00,
2013-10-21 12:22:00,60.2,51.2,30.13,ENE,73,0.0,2.0,72,0.00,,---,0.00,VWS V14.01,2013-10-21 16:22:00,
2013-10-21 12:27:00,60.7,52.0,30.13,South,182,2.0,2.0,73,0.00,,---,0.00,VWS V14.01,2013-10-21 16:27:00,
2013-10-21 12:32:00,61.0,49.6,30.13,SW,229,0.0,2.0,66,0.00,,---,0.00,VWS V14.01,2013-10-21 16:32:00,
2013-10-21 12:37:00,61.1,49.3,30.13,NNW,338,0.0,2.0,65,0.00,,---,0.00,VWS V14.01,2013-10-21 16:37:00,
2013-10-21 12:42:00,61.3,50.7,30.12,SSE,153,1.0,2.0,68,0.00,,---,0.00,VWS V14.01,2013-10-21 16:42:00,
2013-10-21 12:47:00,61.7,48.1,30.12,WSW,255,1.0,4.0,61,0.00,,---,0.00,VWS V14.01,2013-10-21 16:47:00,
2013-10-21 12:52:00,62.0,46.6,30.12,SSE,155,1.0,4.0,57,0.00,,---,0.00,VWS V14.01,2013-10-21 16:52:00,
2013-10-21 12:57:00,62.2,47.3,30.12,SE,126,0.0,2.0,58,0.00,,---,0.00,VWS V14.01,2013-10-21 16:57:00,
2013-10-21 13:02:00,62.0,46.6,30.11,East,94,1.0,2.0,57,0.00,,---,0.00,VWS V14.01,2013-10-21 17:02:00,
2013-10-21 13:07:00,62.3,47.3,30.11,SSE,155,1.0,2.0,58,0.00,,---,0.00,VWS V14.01,2013-10-21 17:07:00,
2013-10-21 13:12:00,62.6,47.6,30.11,SW,214,0.0,2.0,58,0.00,,---,0.00,VWS V14.01,2013-10-21 17:12:00,
2013-10-21 13:17:00,63.1,47.6,30.11,NW,310,0.0,2.0,57,0.00,,---,0.00,VWS V14.01,2013-10-21 17:17:00,
2013-10-21 13:22:00,63.3,46.9,30.10,West,272,1.0,2.0,55,0.00,,---,0.00,VWS V14.01,2013-10-21 17:22:00,
2013-10-21 13:27:00,63.3,47.3,30.10,ESE,123,1.0,2.0,56,0.00,,---,0.00,VWS V14.01,2013-10-21 17:27:00,
2013-10-21 13:32:00,63.2,46.8,30.10,SE,142,1.0,4.0,55,0.00,,---,0.00,VWS V14.01,2013-10-21 17:32:00,
2013-10-21 13:37:00,63.2,46.8,30.09,SE,127,0.0,4.0,55,0.00,,---,0.00,VWS V14.01,2013-10-21 17:37:00,
2013-10-21 13:42:00,63.3,47.8,30.09,ESE,119,0.0,4.0,57,0.00,,---,0.00,VWS V14.01,2013-10-21 17:42:00,
2013-10-21 13:47:00,63.4,47.5,30.08,East,82,1.0,4.0,56,0.00,,---,0.00,VWS V14.01,2013-10-21 17:47:00,
2013-10-21 13:52:00,63.3,45.9,30.08,South,186,0.0,4.0,53,0.00,,---,0.00,VWS V14.01,2013-10-21 17:52:00,
2013-10-21 13:57:00,63.5,46.1,30.08,ENE,76,1.0,2.0,53,0.00,,---,0.00,VWS V14.01,2013-10-21 17:57:00,
2013-10-21 14:02:00,63.6,46.2,30.07,NNE,24,0.0,2.0,53,0.00,,---,0.00,VWS V14.01,2013-10-21 18:02:00,
2013-10-21 14:07:00,63.8,46.4,30.07,NW,306,0.0,2.0,53,0.00,,---,0.00,VWS V14.01,2013-10-21 18:07:00,
2013-10-21 14:12:00,64.4,46.4,30.07,SW,215,0.0,2.0,52,0.00,,---,0.00,VWS V14.01,2013-10-21 18:12:00,
2013-10-21 14:17:00,64.9,47.9,30.07,SW,222,1.0,2.0,54,0.00,,---,0.00,VWS V14.01,2013-10-21 18:17:00,
2013-10-21 14:22:00,65.4,47.3,30.07,ESE,123,0.0,2.0,52,0.00,,---,0.00,VWS V14.01,2013-10-21 18:22:00,
2013-10-21 14:28:00,65.7,47.6,30.07,South,178,0.0,0.0,52,0.00,,---,0.00,VWS V14.01,2013-10-21 18:28:00,
2013-10-21 14:33:00,66.1,46.9,30.06,West,263,1.0,1.0,50,0.00,,---,0.00,VWS V14.01,2013-10-21 18:33:00,
2013-10-21 14:37:00,66.2,48.1,30.06,West,276,0.0,1.0,52,0.00,,---,0.00,VWS V14.01,2013-10-21 18:37:00,
2013-10-21 14:43:00,66.0,46.8,30.06,ENE,76,1.0,4.0,50,0.00,,---,0.00,VWS V14.01,2013-10-21 18:43:00,
2013-10-21 14:48:00,65.8,48.2,30.06,ENE,69,4.0,4.0,53,0.00,,---,0.00,VWS V14.01,2013-10-21 18:48:00,
2013-10-21 14:52:00,65.7,47.1,30.05,South,188,1.0,4.0,51,0.00,,---,0.00,VWS V14.01,2013-10-21 18:52:00,
2013-10-21 14:57:00,66.1,49.0,30.05,East,80,1.0,1.0,54,0.00,,---,0.00,VWS V14.01,2013-10-21 18:57:00,
2013-10-21 15:02:00,66.4,49.3,30.05,SE,130,1.0,1.0,54,0.00,,---,0.00,VWS V14.01,2013-10-21 19:02:00,
2013-10-21 15:07:00,66.8,49.1,30.06,SSE,161,1.0,1.0,53,0.00,,---,0.00,VWS V14.01,2013-10-21 19:07:00,
2013-10-21 15:13:00,67.0,47.8,30.05,West,259,0.0,2.0,50,0.00,,---,0.00,VWS V14.01,2013-10-21 19:13:00,
2013-10-21 15:18:00,67.5,49.3,30.05,WSW,238,0.0,2.0,52,0.00,,---,0.00,VWS V14.01,2013-10-21 19:18:00,
2013-10-21 15:23:00,67.9,49.1,30.04,West,269,0.0,2.0,51,0.00,,---,0.00,VWS V14.01,2013-10-21 19:23:00,
2013-10-21 15:28:00,68.5,50.7,30.04,West,269,0.0,0.0,53,0.00,,---,0.00,VWS V14.01,2013-10-21 19:28:00,
2013-10-21 15:33:00,68.9,50.6,30.04,West,269,1.0,1.0,52,0.00,,---,0.00,VWS V14.01,2013-10-21 19:33:00,
2013-10-21 15:38:00,68.7,48.8,30.04,South,186,2.0,2.0,49,0.00,,---,0.00,VWS V14.01,2013-10-21 19:38:00,
2013-10-21 15:43:00,68.4,49.6,30.04,South,178,0.0,2.0,51,0.00,,---,0.00,VWS V14.01,2013-10-21 19:43:00,
2013-10-21 15:48:00,68.0,48.2,30.04,SE,125,1.0,2.0,49,0.00,,---,0.00,VWS V14.01,2013-10-21 19:48:00,
2013-10-21 15:53:00,67.2,48.5,30.03,East,81,0.0,2.0,51,0.00,,---,0.00,VWS V14.01,2013-10-21 19:53:00,
2013-10-21 15:58:00,67.0,48.3,30.03,SE,132,0.0,1.0,51,0.00,,---,0.00,VWS V14.01,2013-10-21 19:58:00,
2013-10-21 16:03:00,67.2,49.0,30.03,South,191,0.0,1.0,52,0.00,,---,0.00,VWS V14.01,2013-10-21 20:03:00,
2013-10-21 16:08:00,67.2,48.5,30.03,SW,215,0.0,1.0,51,0.00,,---,0.00,VWS V14.01,2013-10-21 20:08:00,
2013-10-21 16:13:00,67.0,49.3,30.03,WSW,250,0.0,1.0,53,0.00,,---,0.00,VWS V14.01,2013-10-21 20:13:00,
2013-10-21 16:18:00,66.4,49.8,30.03,WSW,248,0.0,1.0,55,0.00,,---,0.00,VWS V14.01,2013-10-21 20:18:00,
2013-10-21 16:23:00,66.1,50.9,30.03,WSW,248,0.0,1.0,58,0.00,,---,0.00,VWS V14.01,2013-10-21 20:23:00,
2013-10-21 16:28:00,65.5,50.3,30.03,WSW,248,0.0,0.0,58,0.00,,---,0.00,VWS V14.01,2013-10-21 20:28:00,
2013-10-21 16:33:00,64.9,51.2,30.03,WSW,248,0.0,0.0,61,0.00,,---,0.00,VWS V14.01,2013-10-21 20:33:00,
2013-10-21 16:38:00,64.5,50.8,30.03,WSW,248,0.0,0.0,61,0.00,,---,0.00,VWS V14.01,2013-10-21 20:38:00,
2013-10-21 16:43:00,64.3,51.5,30.03,WSW,248,0.0,0.0,63,0.00,,---,0.00,VWS V14.01,2013-10-21 20:43:00,
2013-10-21 16:48:00,64.0,52.4,30.03,WSW,248,0.0,0.0,66,0.00,,---,0.00,VWS V14.01,2013-10-21 20:48:00,
2013-10-21 16:53:00,63.9,53.1,30.03,WSW,248,0.0,0.0,68,0.00,,---,0.00,VWS V14.01,2013-10-21 20:53:00,
2013-10-21 16:58:00,63.8,53.5,30.03,WSW,248,0.0,0.0,69,0.00,,---,0.00,VWS V14.01,2013-10-21 20:58:00,
2013-10-21 17:03:00,63.7,53.3,30.03,WSW,248,0.0,0.0,69,0.00,,---,0.00,VWS V14.01,2013-10-21 21:03:00,
2013-10-21 17:08:00,63.5,53.5,30.02,WSW,248,0.0,0.0,70,0.00,,---,0.00,VWS V14.01,2013-10-21 21:08:00,
2013-10-21 17:13:00,63.3,53.8,30.03,WSW,248,0.0,0.0,71,0.00,,---,0.00,VWS V14.01,2013-10-21 21:13:00,
2013-10-21 17:18:00,62.9,53.4,30.03,WSW,248,0.0,0.0,71,0.00,,---,0.00,VWS V14.01,2013-10-21 21:18:00,
2013-10-21 17:23:00,62.5,53.4,30.02,WSW,248,0.0,0.0,72,0.00,,---,0.00,VWS V14.01,2013-10-21 21:23:00,
2013-10-21 17:28:00,62.4,53.6,30.02,WSW,248,0.0,0.0,73,0.00,,---,0.00,VWS V14.01,2013-10-21 21:28:00,
2013-10-21 17:33:00,62.2,53.8,30.02,WSW,248,0.0,0.0,74,0.00,,---,0.00,VWS V14.01,2013-10-21 21:33:00,
2013-10-21 17:38:00,62.1,54.1,30.02,WSW,248,0.0,0.0,75,0.00,,---,0.00,VWS V14.01,2013-10-21 21:38:00,
2013-10-21 17:43:00,61.9,53.9,30.02,WSW,248,0.0,0.0,75,0.00,,---,0.00,VWS V14.01,2013-10-21 21:43:00,
2013-10-21 17:48:00,61.7,53.0,30.02,WSW,248,0.0,0.0,73,0.00,,---,0.00,VWS V14.01,2013-10-21 21:48:00,
2013-10-21 17:53:00,61.4,53.0,30.02,WSW,248,0.0,0.0,74,0.00,,---,0.00,VWS V14.01,2013-10-21 21:53:00,
2013-10-21 17:58:00,61.1,52.8,30.03,WSW,248,0.0,0.0,74,0.00,,---,0.00,VWS V14.01,2013-10-21 21:58:00,
2013-10-21 18:03:00,60.6,52.6,30.02,WSW,248,0.0,0.0,75,0.00,,---,0.00,VWS V14.01,2013-10-21 22:03:00,
2013-10-21 18:08:00,60.2,52.6,30.03,WSW,248,0.0,0.0,76,0.00,,---,0.00,VWS V14.01,2013-10-21 22:08:00,
2013-10-21 18:13:00,59.5,52.3,30.02,WSW,248,0.0,0.0,77,0.00,,---,0.00,VWS V14.01,2013-10-21 22:13:00,
2013-10-21 18:18:00,59.0,51.8,30.02,WSW,248,0.0,0.0,77,0.00,,---,0.00,VWS V14.01,2013-10-21 22:18:00,
2013-10-21 18:23:00,58.4,51.9,30.02,WSW,248,0.0,0.0,79,0.00,,---,0.00,VWS V14.01,2013-10-21 22:23:00,
2013-10-21 18:28:00,57.8,51.7,30.02,WSW,248,0.0,0.0,80,0.00,,---,0.00,VWS V14.01,2013-10-21 22:28:00,
2013-10-21 18:33:00,57.1,51.0,30.02,WSW,248,0.0,0.0,80,0.00,,---,0.00,VWS V14.01,2013-10-21 22:33:00,
2013-10-21 18:38:00,56.6,51.2,30.02,WSW,248,0.0,0.0,82,0.00,,---,0.00,VWS V14.01,2013-10-21 22:38:00,
2013-10-21 18:43:00,56.0,51.2,30.03,WSW,248,0.0,0.0,84,0.00,,---,0.00,VWS V14.01,2013-10-21 22:43:00,
2013-10-21 18:48:00,55.4,51.0,30.03,WSW,248,0.0,0.0,85,0.00,,---,0.00,VWS V14.01,2013-10-21 22:48:00,
2013-10-21 18:53:00,54.9,50.5,30.03,WSW,248,0.0,0.0,85,0.00,,---,0.00,VWS V14.01,2013-10-21 22:53:00,
2013-10-21 18:58:00,54.5,50.7,30.03,WSW,248,0.0,0.0,87,0.00,,---,0.00,VWS V14.01,2013-10-21 22:58:00,
2013-10-21 19:03:00,54.0,50.5,30.03,WSW,248,0.0,0.0,88,0.00,,---,0.00,VWS V14.01,2013-10-21 23:03:00,
2013-10-21 19:08:00,53.7,50.2,30.03,WSW,248,0.0,0.0,88,0.00,,---,0.00,VWS V14.01,2013-10-21 23:08:00,
2013-10-21 19:13:00,53.4,50.2,30.03,WSW,248,0.0,0.0,89,0.00,,---,0.00,VWS V14.01,2013-10-21 23:13:00,
2013-10-21 19:18:00,53.2,50.0,30.03,WSW,248,0.0,0.0,89,0.00,,---,0.00,VWS V14.01,2013-10-21 23:18:00,
2013-10-21 19:23:00,53.0,50.2,30.02,WSW,248,0.0,0.0,90,0.00,,---,0.00,VWS V14.01,2013-10-21 23:23:00,
2013-10-21 19:28:00,52.8,50.0,30.02,WSW,248,0.0,0.0,90,0.00,,---,0.00,VWS V14.01,2013-10-21 23:28:00,
2013-10-21 19:33:00,52.5,50.0,30.02,WSW,248,0.0,0.0,91,0.00,,---,0.00,VWS V14.01,2013-10-21 23:33:00,
2013-10-21 19:38:00,52.3,49.8,30.02,WSW,248,0.0,0.0,91,0.00,,---,0.00,VWS V14.01,2013-10-21 23:38:00,
2013-10-21 19:43:00,52.1,49.6,30.02,WSW,248,0.0,0.0,91,0.00,,---,0.00,VWS V14.01,2013-10-21 23:43:00,
2013-10-21 19:48:00,52.0,49.8,30.02,WSW,248,0.0,0.0,92,0.00,,---,0.00,VWS V14.01,2013-10-21 23:48:00,
2013-10-21 19:53:00,51.8,49.5,30.03,WSW,248,0.0,0.0,92,0.00,,---,0.00,VWS V14.01,2013-10-21 23:53:00,
2013-10-21 19:58:00,51.8,49.5,30.02,WSW,248,0.0,0.0,92,0.00,,---,0.00,VWS V14.01,2013-10-21 23:58:00,
2013-10-21 20:03:00,51.7,49.5,30.03,WSW,248,0.0,0.0,92,0.00,,---,0.00,VWS V14.01,2013-10-22 00:03:00,
2013-10-21 20:08:00,51.5,49.5,30.02,WSW,248,0.0,0.0,93,0.00,,---,0.00,VWS V14.01,2013-10-22 00:08:00,
2013-10-21 20:13:00,51.4,49.5,30.02,WSW,248,0.0,0.0,93,0.00,,---,0.00,VWS V14.01,2013-10-22 00:13:00,
2013-10-21 20:19:00,51.2,49.2,30.02,WSW,248,0.0,0.0,93,0.00,,---,0.00,VWS V14.01,2013-10-22 00:19:00,
2013-10-21 20:24:00,51.1,49.2,30.02,WSW,248,0.0,0.0,93,0.00,,---,0.00,VWS V14.01,2013-10-22 00:24:00,
2013-10-21 20:29:00,51.0,49.0,30.02,WSW,248,0.0,0.0,93,0.00,,---,0.00,VWS V14.01,2013-10-22 00:29:00,
2013-10-21 20:34:00,50.9,49.0,30.02,WSW,248,0.0,0.0,93,0.00,,---,0.00,VWS V14.01,2013-10-22 00:34:00,
2013-10-21 20:39:00,50.8,49.1,30.03,WSW,248,0.0,0.0,94,0.00,,---,0.00,VWS V14.01,2013-10-22 00:39:00,
2013-10-21 20:44:00,50.8,49.1,30.02,WSW,248,0.0,0.0,94,0.00,,---,0.00,VWS V14.01,2013-10-22 00:44:00,
2013-10-21 20:49:00,50.7,49.0,30.02,WSW,248,0.0,0.0,94,0.00,,---,0.00,VWS V14.01,2013-10-22 00:49:00,
2013-10-21 20:54:00,50.6,48.9,30.02,WSW,248,0.0,0.0,94,0.00,,---,0.00,VWS V14.01,2013-10-22 00:54:00,
2013-10-21 20:59:00,50.6,48.9,30.03,WSW,248,0.0,0.0,94,0.00,,---,0.00,VWS V14.01,2013-10-22 00:59:00,
2013-10-21 21:04:00,50.5,48.8,30.04,WSW,248,0.0,0.0,94,0.00,,---,0.00,VWS V14.01,2013-10-22 01:04:00,
2013-10-21 21:09:00,50.5,48.8,30.03,WSW,248,0.0,0.0,94,0.00,,---,0.00,VWS V14.01,2013-10-22 01:09:00,
2013-10-21 21:14:00,50.6,48.9,30.02,WSW,248,0.0,0.0,94,0.00,,---,0.00,VWS V14.01,2013-10-22 01:14:00,
2013-10-21 21:19:00,50.5,48.8,30.03,WSW,248,0.0,0.0,94,0.00,,---,0.00,VWS V14.01,2013-10-22 01:19:00,
2013-10-21 21:24:00,50.5,48.8,30.03,WSW,248,0.0,0.0,94,0.00,,---,0.00,VWS V14.01,2013-10-22 01:24:00,
2013-10-21 21:29:00,50.5,49.1,30.03,WSW,248,0.0,0.0,95,0.00,,---,0.00,VWS V14.01,2013-10-22 01:29:00,
2013-10-21 21:34:00,50.4,49.0,30.03,WSW,248,0.0,0.0,95,0.00,,---,0.00,VWS V14.01,2013-10-22 01:34:00,
2013-10-21 21:39:00,50.4,49.0,30.03,WSW,248,0.0,0.0,95,0.00,,---,0.00,VWS V14.01,2013-10-22 01:39:00,
2013-10-21 21:44:00,50.3,48.9,30.03,WSW,248,0.0,0.0,95,0.00,,---,0.00,VWS V14.01,2013-10-22 01:44:00,
2013-10-21 21:49:00,50.3,48.9,30.03,WSW,248,0.0,0.0,95,0.00,,---,0.00,VWS V14.01,2013-10-22 01:49:00,
2013-10-21 21:54:00,50.3,48.9,30.03,WSW,248,0.0,0.0,95,0.00,,---,0.00,VWS V14.01,2013-10-22 01:54:00,
2013-10-21 21:59:00,50.3,48.9,30.03,WSW,248,0.0,0.0,95,0.00,,---,0.00,VWS V14.01,2013-10-22 01:59:00,
2013-10-21 22:04:00,50.3,48.9,30.03,WSW,248,0.0,0.0,95,0.00,,---,0.00,VWS V14.01,2013-10-22 02:04:00,
2013-10-21 22:09:00,50.2,48.8,30.03,WSW,248,0.0,0.0,95,0.00,,---,0.00,VWS V14.01,2013-10-22 02:09:00,
2013-10-21 22:14:00,50.2,48.8,30.02,WSW,248,0.0,0.0,95,0.00,,---,0.00,VWS V14.01,2013-10-22 02:14:00,
2013-10-21 22:19:00,50.2,48.8,30.02,WSW,248,0.0,0.0,95,0.00,,---,0.00,VWS V14.01,2013-10-22 02:19:00,
2013-10-21 22:24:00,50.2,48.8,30.02,WSW,248,0.0,0.0,95,0.00,,---,0.00,VWS V14.01,2013-10-22 02:24:00,
2013-10-21 22:29:00,50.2,48.8,30.02,WSW,248,0.0,0.0,95,0.00,,---,0.00,VWS V14.01,2013-10-22 02:29:00,
2013-10-21 22:34:00,50.2,48.8,30.03,WSW,248,0.0,0.0,95,0.00,,---,0.00,VWS V14.01,2013-10-22 02:34:00,
2013-10-21 22:39:00,50.1,48.7,30.02,WSW,248,0.0,0.0,95,0.00,,---,0.00,VWS V14.01,2013-10-22 02:39:00,
2013-10-21 22:44:00,50.1,48.7,30.02,WSW,248,0.0,0.0,95,0.00,,---,0.00,VWS V14.01,2013-10-22 02:44:00,
2013-10-21 22:49:00,50.1,48.7,30.02,WSW,248,0.0,0.0,95,0.00,,---,0.00,VWS V14.01,2013-10-22 02:49:00,
2013-10-21 22:54:00,50.2,48.8,30.02,WSW,248,0.0,0.0,95,0.00,,---,0.00,VWS V14.01,2013-10-22 02:54:00,
2013-10-21 22:59:00,50.2,48.8,30.02,WSW,248,0.0,0.0,95,0.00,,---,0.00,VWS V14.01,2013-10-22 02:59:00,
2013-10-21 23:04:00,50.1,48.7,30.01,WSW,248,0.0,0.0,95,0.00,,---,0.00,VWS V14.01,2013-10-22 03:04:00,
2013-10-21 23:09:00,50.1,48.7,30.02,WSW,248,0.0,0.0,95,0.00,,---,0.00,VWS V14.01,2013-10-22 03:09:00,
2013-10-21 23:14:00,50.1,48.7,30.01,WSW,248,0.0,0.0,95,0.00,,---,0.00,VWS V14.01,2013-10-22 03:14:00,
2013-10-21 23:19:00,50.0,48.9,30.01,WSW,248,0.0,0.0,96,0.00,,---,0.00,VWS V14.01,2013-10-22 03:19:00,
2013-10-21 23:24:00,50.0,48.9,30.00,WSW,248,0.0,0.0,96,0.00,,---,0.00,VWS V14.01,2013-10-22 03:24:00,
2013-10-21 23:29:00,49.9,48.8,30.00,WSW,248,0.0,0.0,96,0.00,,---,0.00,VWS V14.01,2013-10-22 03:29:00,
2013-10-21 23:34:00,49.9,48.8,30.00,WSW,248,0.0,0.0,96,0.00,,---,0.00,VWS V14.01,2013-10-22 03:34:00,
2013-10-21 23:39:00,49.9,48.8,30.00,WSW,248,0.0,0.0,96,0.00,,---,0.00,VWS V14.01,2013-10-22 03:39:00,
2013-10-21 23:44:00,49.9,48.8,30.00,WSW,248,0.0,0.0,96,0.00,,---,0.00,VWS V14.01,2013-10-22 03:44:00,
2013-10-21 23:49:00,49.9,48.8,30.00,WSW,248,0.0,0.0,96,0.00,,---,0.00,VWS V14.01,2013-10-22 03:49:00,
2013-10-21 23:54:00,49.9,48.8,29.99,WSW,248,0.0,0.0,96,0.00,,---,0.00,VWS V14.01,2013-10-22 03:54:00,
2013-10-21 23:59:00,49.9,48.8,29.99,WSW,248,0.0,0.0,96,0.00,,---,0.00,VWS V14.01,2013-10-22 03:59:00,